Terminal Aerodrome Forecast
Issued by NWS

Home | Current Version | Previous Version | Text Only | Print | Product List | Glossary On
Versions: 1 2 3 4 5 6 7 8 9 10 11 12 13 14 15 16 17 18 19 20 21 22 23 24
000
FTUS43 KPAH 060520
TAFOWB
TAF
KOWB 060520Z 0606/0706 16005KT P6SM SCT100
     FM061500 18008KT P6SM SCT070 SCT150
     FM070100 17005KT P6SM SCT070=

USA.gov is the U.S. government's official web portal to all federal, state and local government web resources and services.